www.cux-wetter.de
Wetterdaten: Donnerstag, 17.07.2008
Datum Zeit Temp. A. Feuchte A. Luftdruck Regen Wind Richtung Richtung Sonnenschein Solar Taupunkt Windchill Windben
17.07.2008 00:00 15,4 C 77 % 1012,5 hPa 0,0 l/m 27,8 km/h (5 Bft) N-NW 330 0 min 0 W/m 11,4 C 8,6 C 27,8 km/h (5 Bft)
17.07.2008 00:06 15,4 C 77 % 1012,5 hPa 0,0 l/m 25,8 km/h (4 Bft) NW 310 0 min 0 W/m 11,4 C 9,0 C 25,8 km/h (4 Bft)
17.07.2008 00:10 15,4 C 76 % 1012,5 hPa 0,0 l/m 18,5 km/h (3 Bft) NW 320 0 min 0 W/m 11,2 C 10,7 C 18,5 km/h (3 Bft)
17.07.2008 00:15 15,4 C 76 % 1012,5 hPa 0,0 l/m 29,3 km/h (5 Bft) NW 320 0 min 0 W/m 11,2 C 8,4 C 29,3 km/h (5 Bft)
17.07.2008 00:20 15,3 C 76 % 1012,5 hPa 0,0 l/m 19,5 km/h (3 Bft) NW 315 0 min 0 W/m 11,1 C 10,3 C 19,5 km/h (3 Bft)
17.07.2008 00:25 15,4 C 76 % 1012,5 hPa 0,0 l/m 27,8 km/h (5 Bft) NW 310 0 min 0 W/m 11,2 C 8,6 C 27,8 km/h (5 Bft)
17.07.2008 00:30 15,5 C 76 % 1012,5 hPa 0,0 l/m 21,1 km/h (4 Bft) NW 310 0 min 0 W/m 11,3 C 10,1 C 21,1 km/h (4 Bft)
17.07.2008 00:35 15,5 C 77 % 1012,5 hPa 0,0 l/m 24,1 km/h (4 Bft) NW 320 0 min 0 W/m 11,5 C 9,5 C 24,1 km/h (4 Bft)
17.07.2008 00:40 15,6 C 79 % 1012,5 hPa 0,0 l/m 26,1 km/h (4 Bft) NW 310 0 min 0 W/m 12,0 C 9,2 C 26,1 km/h (4 Bft)
17.07.2008 00:45 15,7 C 79 % 1012,5 hPa 0,0 l/m 26,5 km/h (4 Bft) NW 315 0 min 0 W/m 12,1 C 9,3 C 26,5 km/h (4 Bft)
17.07.2008 00:50 15,7 C 79 % 1012,5 hPa 0,0 l/m 30,5 km/h (5 Bft) W-NW 295 0 min 0 W/m 12,1 C 8,6 C 30,5 km/h (5 Bft)
17.07.2008 00:55 15,6 C 79 % 1012,5 hPa 0,0 l/m 21,1 km/h (4 Bft) W-NW 290 0 min 0 W/m 12,0 C 10,3 C 21,1 km/h (4 Bft)
17.07.2008 01:00 15,6 C 79 % 1012,5 hPa 0,0 l/m 20,2 km/h (4 Bft) W-NW 295 0 min 0 W/m 12,0 C 10,5 C 20,2 km/h (4 Bft)
17.07.2008 01:05 15,6 C 79 % 1012,5 hPa 0,0 l/m 14,9 km/h (3 Bft) W-NW 290 0 min 0 W/m 12,0 C 12,0 C 14,9 km/h (3 Bft)
17.07.2008 01:10 15,6 C 79 % 1012,5 hPa 0,0 l/m 20,5 km/h (4 Bft) W-NW 285 0 min 0 W/m 12,0 C 10,4 C 20,5 km/h (4 Bft)
17.07.2008 01:15 15,5 C 79 % 1012,5 hPa 0,0 l/m 21,5 km/h (4 Bft) W-NW 300 0 min 0 W/m 11,9 C 10,0 C 21,5 km/h (4 Bft)
17.07.2008 01:20 15,5 C 79 % 1012,5 hPa 0,0 l/m 25,1 km/h (4 Bft) NW 305 0 min 0 W/m 11,9 C 9,3 C 25,1 km/h (4 Bft)
17.07.2008 01:25 15,5 C 81 % 1012,5 hPa 0,0 l/m 20,3 km/h (4 Bft) W-NW 285 0 min 0 W/m 12,3 C 10,3 C 20,3 km/h (4 Bft)
17.07.2008 01:30 15,4 C 79 % 1012,5 hPa 0,0 l/m 25,4 km/h (4 Bft) W-NW 300 0 min 0 W/m 11,8 C 9,1 C 25,4 km/h (4 Bft)
17.07.2008 01:36 15,4 C 82 % 1012,5 hPa 0,0 l/m 20,2 km/h (4 Bft) NW 305 0 min 0 W/m 12,3 C 10,2 C 20,2 km/h (4 Bft)
17.07.2008 01:41 15,3 C 83 % 1012,5 hPa 0,0 l/m 20,4 km/h (4 Bft) W-NW 290 0 min 0 W/m 12,4 C 10,0 C 20,4 km/h (4 Bft)
17.07.2008 01:46 15,2 C 81 % 1012,5 hPa 0,0 l/m 24,9 km/h (4 Bft) W 280 0 min 0 W/m 12,0 C 8,9 C 24,9 km/h (4 Bft)
17.07.2008 01:50 15,2 C 82 % 1012,5 hPa 0,0 l/m 20,5 km/h (4 Bft) W-NW 285 0 min 0 W/m 12,1 C 9,9 C 20,5 km/h (4 Bft)
17.07.2008 01:55 15,2 C 84 % 1012,5 hPa 0,0 l/m 18,2 km/h (3 Bft) NW 305 0 min 0 W/m 12,5 C 10,5 C 18,2 km/h (3 Bft)
17.07.2008 02:00 15,0 C 82 % 1012,5 hPa 0,0 l/m 20,8 km/h (4 Bft) NW 310 0 min 0 W/m 12,0 C 9,5 C 20,8 km/h (4 Bft)
17.07.2008 02:06 15,0 C 82 % 1012,5 hPa 0,0 l/m 22,5 km/h (4 Bft) NW 305 0 min 0 W/m 12,0 C 9,1 C 22,5 km/h (4 Bft)
17.07.2008 02:10 15,0 C 83 % 1012,5 hPa 0,0 l/m 14,3 km/h (3 Bft) NW 305 0 min 0 W/m 12,1 C 11,4 C 14,3 km/h (3 Bft)
17.07.2008 02:15 15,0 C 82 % 1012,5 hPa 0,0 l/m 20,9 km/h (4 Bft) NW 310 0 min 0 W/m 12,0 C 9,5 C 20,9 km/h (4 Bft)
17.07.2008 02:20 15,1 C 81 % 1012,5 hPa 0,0 l/m 20,0 km/h (4 Bft) W-NW 300 0 min 0 W/m 11,9 C 9,9 C 20,0 km/h (4 Bft)
17.07.2008 02:25 15,3 C 81 % 1011,5 hPa 0,0 l/m 15,6 km/h (3 Bft) W-NW 285 0 min 0 W/m 12,1 C 11,4 C 15,6 km/h (3 Bft)
17.07.2008 02:30 15,3 C 81 % 1011,5 hPa 0,0 l/m 15,1 km/h (3 Bft) NW 305 0 min 0 W/m 12,1 C 11,5 C 15,1 km/h (3 Bft)
17.07.2008 02:35 15,4 C 82 % 1011,5 hPa 0,0 l/m 17,0 km/h (3 Bft) NW 315 0 min 0 W/m 12,3 C 11,1 C 17,0 km/h (3 Bft)
17.07.2008 02:40 15,4 C 81 % 1011,5 hPa 0,0 l/m 18,6 km/h (3 Bft) NW 305 0 min 0 W/m 12,2 C 10,6 C 18,6 km/h (3 Bft)
17.07.2008 02:45 15,4 C 81 % 1011,5 hPa 0,0 l/m 15,8 km/h (3 Bft) NW 310 0 min 0 W/m 12,2 C 11,4 C 15,8 km/h (3 Bft)
17.07.2008 02:50 15,3 C 81 % 1011,5 hPa 0,0 l/m 18,3 km/h (3 Bft) NW 310 0 min 0 W/m 12,1 C 10,6 C 18,3 km/h (3 Bft)
17.07.2008 02:55 15,3 C 81 % 1011,5 hPa 0,0 l/m 16,9 km/h (3 Bft) NW 310 0 min 0 W/m 12,1 C 11,0 C 16,9 km/h (3 Bft)
17.07.2008 03:00 15,3 C 81 % 1011,5 hPa 0,0 l/m 18,5 km/h (3 Bft) NW 305 0 min 0 W/m 12,1 C 10,5 C 18,5 km/h (3 Bft)
17.07.2008 03:05 15,4 C 79 % 1011,5 hPa 0,0 l/m 18,8 km/h (3 Bft) W-NW 300 0 min 0 W/m 11,8 C 10,6 C 18,8 km/h (3 Bft)
17.07.2008 03:10 15,5 C 80 % 1011,5 hPa 0,0 l/m 27,1 km/h (5 Bft) NW 320 0 min 0 W/m 12,1 C 8,9 C 27,1 km/h (5 Bft)
17.07.2008 03:15 15,4 C 82 % 1011,5 hPa 0,9 l/m 20,8 km/h (4 Bft) NW 325 0 min 0 W/m 12,3 C 10,1 C 20,8 km/h (4 Bft)
17.07.2008 03:21 15,0 C 84 % 1011,5 hPa 0,3 l/m 23,0 km/h (4 Bft) NW 320 0 min 0 W/m 12,3 C 9,0 C 23,0 km/h (4 Bft)
17.07.2008 03:26 14,7 C 85 % 1011,5 hPa 0,0 l/m 14,7 km/h (3 Bft) NW 305 0 min 0 W/m 12,2 C 10,9 C 14,7 km/h (3 Bft)
17.07.2008 03:31 14,5 C 85 % 1011,5 hPa 0,0 l/m 15,6 km/h (3 Bft) NW 310 0 min 0 W/m 12,0 C 10,4 C 15,6 km/h (3 Bft)
17.07.2008 03:35 14,5 C 85 % 1011,5 hPa 0,0 l/m 9,7 km/h (2 Bft) W-NW 295 0 min 0 W/m 12,0 C 12,7 C 9,7 km/h (2 Bft)
17.07.2008 03:40 14,6 C 85 % 1011,5 hPa 0,0 l/m 11,1 km/h (2 Bft) NW 310 0 min 0 W/m 12,1 C 12,2 C 11,1 km/h (2 Bft)
17.07.2008 03:45 14,5 C 85 % 1011,5 hPa 0,0 l/m 11,8 km/h (2 Bft) NW 320 0 min 0 W/m 12,0 C 11,8 C 11,8 km/h (2 Bft)
17.07.2008 03:50 14,5 C 86 % 1011,5 hPa 0,0 l/m 11,0 km/h (2 Bft) NW 315 0 min 0 W/m 12,2 C 12,1 C 11,0 km/h (2 Bft)
17.07.2008 03:55 14,5 C 85 % 1011,5 hPa 0,0 l/m 11,1 km/h (2 Bft) NW 315 0 min 0 W/m 12,0 C 12,1 C 11,1 km/h (2 Bft)
17.07.2008 04:00 14,5 C 84 % 1011,5 hPa 0,0 l/m 9,0 km/h (2 Bft) NW 310 0 min 0 W/m 11,8 C 13,1 C 9,0 km/h (2 Bft)
17.07.2008 04:05 14,6 C 84 % 1011,5 hPa 0,0 l/m 11,6 km/h (2 Bft) NW 305 0 min 0 W/m 11,9 C 12,0 C 11,6 km/h (2 Bft)
17.07.2008 04:10 14,5 C 83 % 1011,5 hPa 0,0 l/m 10,3 km/h (2 Bft) NW 310 0 min 0 W/m 11,6 C 12,4 C 10,3 km/h (2 Bft)
17.07.2008 04:15 14,4 C 83 % 1011,5 hPa 0,0 l/m 10,2 km/h (2 Bft) NW 305 0 min 0 W/m 11,5 C 12,4 C 10,2 km/h (2 Bft)
17.07.2008 04:20 14,5 C 84 % 1011,5 hPa 0,0 l/m 10,5 km/h (2 Bft) NW 310 0 min 0 W/m 11,8 C 12,3 C 10,5 km/h (2 Bft)
17.07.2008 04:25 14,6 C 84 % 1011,5 hPa 0,0 l/m 12,7 km/h (3 Bft) NW 315 0 min 0 W/m 11,9 C 11,5 C 12,7 km/h (3 Bft)
17.07.2008 04:30 14,6 C 85 % 1011,5 hPa 0,0 l/m 11,8 km/h (2 Bft) N-NW 330 0 min 0 W/m 12,1 C 11,9 C 11,8 km/h (2 Bft)
17.07.2008 04:35 14,5 C 84 % 1011,5 hPa 0,0 l/m 15,3 km/h (3 Bft) NW 320 0 min 0 W/m 11,8 C 10,5 C 15,3 km/h (3 Bft)
17.07.2008 04:40 14,5 C 84 % 1011,5 hPa 0,0 l/m 15,0 km/h (3 Bft) NW 320 0 min 0 W/m 11,8 C 10,6 C 15,0 km/h (3 Bft)
17.07.2008 04:46 14,6 C 84 % 1011,5 hPa 0,0 l/m 18,6 km/h (3 Bft) NW 320 0 min 0 W/m 11,9 C 9,6 C 18,6 km/h (3 Bft)
17.07.2008 04:51 14,7 C 84 % 1011,5 hPa 0,0 l/m 14,8 km/h (3 Bft) NW 315 0 min 0 W/m 12,0 C 10,9 C 14,8 km/h (3 Bft)
17.07.2008 04:56 14,8 C 85 % 1011,5 hPa 0,0 l/m 19,6 km/h (3 Bft) NW 315 0 min 0 W/m 12,3 C 9,6 C 19,6 km/h (3 Bft)
17.07.2008 05:00 14,8 C 85 % 1011,5 hPa 0,0 l/m 16,6 km/h (3 Bft) NW 325 0 min 0 W/m 12,3 C 10,4 C 16,6 km/h (3 Bft)
17.07.2008 05:06 14,9 C 85 % 1011,5 hPa 0,0 l/m 16,8 km/h (3 Bft) NW 325 0 min 0 W/m 12,4 C 10,5 C 16,8 km/h (3 Bft)
17.07.2008 05:11 14,9 C 85 % 1011,5 hPa 0,0 l/m 15,9 km/h (3 Bft) NW 325 0 min 0 W/m 12,4 C 10,8 C 15,9 km/h (3 Bft)
17.07.2008 05:15 14,8 C 84 % 1010,5 hPa 0,0 l/m 21,1 km/h (4 Bft) N-NW 330 0 min 0 W/m 12,1 C 9,2 C 21,1 km/h (4 Bft)
17.07.2008 05:20 14,8 C 84 % 1011,5 hPa 0,0 l/m 19,3 km/h (3 Bft) NW 315 0 min 0 W/m 12,1 C 9,7 C 19,3 km/h (3 Bft)
17.07.2008 05:25 14,8 C 83 % 1011,5 hPa 0,0 l/m 18,3 km/h (3 Bft) NW 320 0 min 0 W/m 11,9 C 9,9 C 18,3 km/h (3 Bft)
17.07.2008 05:30 14,8 C 83 % 1011,5 hPa 0,0 l/m 14,5 km/h (3 Bft) NW 325 0 min 0 W/m 11,9 C 11,1 C 14,5 km/h (3 Bft)
17.07.2008 05:35 14,8 C 82 % 1011,5 hPa 0,0 l/m 18,7 km/h (3 Bft) N-NW 330 0 min 0 W/m 11,8 C 9,8 C 18,7 km/h (3 Bft)
17.07.2008 05:40 14,8 C 83 % 1011,5 hPa 0,0 l/m 15,3 km/h (3 Bft) NW 325 0 min 0 W/m 11,9 C 10,9 C 15,3 km/h (3 Bft)
17.07.2008 05:45 14,8 C 83 % 1011,5 hPa 0,0 l/m 15,3 km/h (3 Bft) NW 315 0 min 0 W/m 11,9 C 10,9 C 15,3 km/h (3 Bft)
17.07.2008 05:50 14,9 C 83 % 1011,5 hPa 0,0 l/m 14,8 km/h (3 Bft) NW 320 0 min 0 W/m 12,0 C 11,1 C 14,8 km/h (3 Bft)
17.07.2008 05:55 15,0 C 82 % 1011,5 hPa 0,0 l/m 14,4 km/h (3 Bft) NW 315 0 min 0 W/m 12,0 C 11,4 C 14,4 km/h (3 Bft)
17.07.2008 06:00 14,9 C 82 % 1011,5 hPa 0,0 l/m 13,5 km/h (3 Bft) NW 315 0 min 0 W/m 11,9 C 11,6 C 13,5 km/h (3 Bft)
17.07.2008 06:05 14,8 C 82 % 1011,5 hPa 0,0 l/m 15,3 km/h (3 Bft) NW 320 0 min 0 W/m 11,8 C 10,9 C 15,3 km/h (3 Bft)
17.07.2008 06:10 15,0 C 82 % 1011,5 hPa 0,0 l/m 18,8 km/h (3 Bft) NW 325 0 min 0 W/m 12,0 C 10,1 C 18,8 km/h (3 Bft)
17.07.2008 06:15 15,0 C 82 % 1011,5 hPa 0,0 l/m 14,5 km/h (3 Bft) NW 310 0 min 0 W/m 12,0 C 11,4 C 14,5 km/h (3 Bft)
17.07.2008 06:21 15,1 C 83 % 1010,5 hPa 0,0 l/m 14,2 km/h (3 Bft) NW 310 0 min 0 W/m 12,2 C 11,6 C 14,2 km/h (3 Bft)
17.07.2008 06:26 15,2 C 82 % 1010,5 hPa 0,0 l/m 12,5 km/h (2 Bft) NW 320 0 min 0 W/m 12,1 C 12,3 C 12,5 km/h (2 Bft)
17.07.2008 06:31 15,2 C 81 % 1011,5 hPa 0,0 l/m 13,9 km/h (3 Bft) NW 310 0 min 0 W/m 12,0 C 11,8 C 13,9 km/h (3 Bft)
17.07.2008 06:35 15,2 C 81 % 1011,5 hPa 0,0 l/m 13,3 km/h (3 Bft) NW 305 0 min 0 W/m 12,0 C 12,0 C 13,3 km/h (3 Bft)
17.07.2008 06:40 15,2 C 80 % 1010,5 hPa 0,0 l/m 17,4 km/h (3 Bft) NW 320 0 min 0 W/m 11,8 C 10,7 C 17,4 km/h (3 Bft)
17.07.2008 06:45 15,3 C 80 % 1011,5 hPa 0,0 l/m 13,0 km/h (3 Bft) NW 320 0 min 0 W/m 11,9 C 12,2 C 13,0 km/h (3 Bft)
17.07.2008 06:50 15,4 C 80 % 1011,5 hPa 0,0 l/m 10,2 km/h (2 Bft) NW 305 0 min 0 W/m 12,0 C 13,5 C 10,2 km/h (2 Bft)
17.07.2008 06:55 15,4 C 79 % 1010,5 hPa 0,0 l/m 12,7 km/h (3 Bft) NW 310 0 min 0 W/m 11,8 C 12,5 C 12,7 km/h (3 Bft)
17.07.2008 07:00 15,5 C 79 % 1010,5 hPa 0,0 l/m 13,1 km/h (3 Bft) NW 310 0 min 0 W/m 11,9 C 12,4 C 13,1 km/h (3 Bft)
17.07.2008 07:05 15,4 C 78 % 1010,5 hPa 0,0 l/m 14,8 km/h (3 Bft) NW 315 0 min 0 W/m 11,6 C 11,7 C 14,8 km/h (3 Bft)
17.07.2008 07:10 15,6 C 79 % 1010,5 hPa 0,0 l/m 9,7 km/h (2 Bft) NW 315 0 min 0 W/m 12,0 C 13,9 C 9,7 km/h (2 Bft)
17.07.2008 07:15 15,8 C 79 % 1010,5 hPa 0,0 l/m 7,9 km/h (2 Bft) W-NW 285 0 min 0 W/m 12,2 C 15,0 C 7,9 km/h (2 Bft)
17.07.2008 07:20 15,9 C 79 % 1011,5 hPa 0,0 l/m 12,5 km/h (2 Bft) NW 310 0 min 0 W/m 12,3 C 13,1 C 12,5 km/h (2 Bft)
17.07.2008 07:25 15,9 C 80 % 1011,5 hPa 0,0 l/m 14,7 km/h (3 Bft) W-NW 300 0 min 0 W/m 12,5 C 12,4 C 14,7 km/h (3 Bft)
17.07.2008 07:31 15,8 C 82 % 1011,5 hPa 0,0 l/m 12,5 km/h (2 Bft) W-NW 285 0 min 0 W/m 12,7 C 13,0 C 12,5 km/h (2 Bft)
17.07.2008 07:36 15,7 C 82 % 1011,5 hPa 0,0 l/m 11,4 km/h (2 Bft) W 270 0 min 0 W/m 12,6 C 13,3 C 11,4 km/h (2 Bft)
17.07.2008 07:41 15,8 C 83 % 1011,5 hPa 0,0 l/m 17,0 km/h (3 Bft) W-NW 300 0 min 0 W/m 12,9 C 11,6 C 17,0 km/h (3 Bft)
17.07.2008 07:45 15,8 C 83 % 1011,5 hPa 0,0 l/m 12,0 km/h (2 Bft) NW 305 0 min 0 W/m 12,9 C 13,2 C 12,0 km/h (2 Bft)
17.07.2008 07:50 15,8 C 83 % 1011,5 hPa 0,0 l/m 13,8 km/h (3 Bft) W-NW 295 0 min 0 W/m 12,9 C 12,6 C 13,8 km/h (3 Bft)
17.07.2008 07:55 15,9 C 83 % 1011,5 hPa 0,0 l/m 11,0 km/h (2 Bft) W 275 0 min 0 W/m 13,0 C 13,7 C 11,0 km/h (2 Bft)
17.07.2008 08:00 15,8 C 83 % 1010,5 hPa 0,0 l/m 12,3 km/h (2 Bft) W-NW 285 0 min 0 W/m 12,9 C 13,1 C 12,3 km/h (2 Bft)
17.07.2008 08:05 15,6 C 84 % 1011,5 hPa 0,0 l/m 18,1 km/h (3 Bft) W 280 0 min 0 W/m 12,9 C 11,0 C 18,1 km/h (3 Bft)
17.07.2008 08:10 15,5 C 83 % 1011,5 hPa 0,0 l/m 13,9 km/h (3 Bft) W-NW 285 0 min 0 W/m 12,6 C 12,2 C 13,9 km/h (3 Bft)
17.07.2008 08:15 15,3 C 83 % 1011,5 hPa 0,0 l/m 19,5 km/h (3 Bft) W 275 0 min 0 W/m 12,4 C 10,3 C 19,5 km/h (3 Bft)
17.07.2008 08:20 15,2 C 84 % 1011,5 hPa 0,0 l/m 22,7 km/h (4 Bft) W 275 0 min 0 W/m 12,5 C 9,4 C 22,7 km/h (4 Bft)
17.07.2008 08:25 15,2 C 85 % 1010,5 hPa 0,0 l/m 17,5 km/h (3 Bft) W 270 0 min 0 W/m 12,7 C 10,7 C 17,5 km/h (3 Bft)
17.07.2008 08:30 15,2 C 85 % 1010,5 hPa 0,0 l/m 15,6 km/h (3 Bft) W 275 0 min 0 W/m 12,7 C 11,2 C 15,6 km/h (3 Bft)
17.07.2008 08:35 15,3 C 85 % 1010,5 hPa 0,0 l/m 14,8 km/h (3 Bft) W 280 0 min 0 W/m 12,8 C 11,6 C 14,8 km/h (3 Bft)
17.07.2008 08:40 15,0 C 87 % 1011,5 hPa 0,0 l/m 15,8 km/h (3 Bft) W 270 0 min 0 W/m 12,9 C 10,9 C 15,8 km/h (3 Bft)
17.07.2008 08:46 15,0 C 88 % 1011,5 hPa 0,0 l/m 17,9 km/h (3 Bft) W 270 0 min 0 W/m 13,0 C 10,3 C 17,9 km/h (3 Bft)
17.07.2008 08:51 15,1 C 88 % 1010,5 hPa 0,0 l/m 23,4 km/h (4 Bft) W 275 0 min 0 W/m 13,1 C 9,1 C 23,4 km/h (4 Bft)
17.07.2008 08:55 15,2 C 87 % 1011,5 hPa 0,0 l/m 18,6 km/h (3 Bft) W 275 0 min 0 W/m 13,0 C 10,4 C 18,6 km/h (3 Bft)
17.07.2008 09:00 15,3 C 86 % 1011,5 hPa 0,0 l/m 18,6 km/h (3 Bft) W 275 0 min 0 W/m 13,0 C 10,5 C 18,6 km/h (3 Bft)
17.07.2008 09:06 15,4 C 85 % 1010,5 hPa 0,0 l/m 18,0 km/h (3 Bft) W 260 0 min 0 W/m 12,9 C 10,8 C 18,0 km/h (3 Bft)
17.07.2008 09:10 15,7 C 82 % 1010,5 hPa 0,0 l/m 18,2 km/h (3 Bft) W 275 0 min 0 W/m 12,6 C 11,1 C 18,2 km/h (3 Bft)
17.07.2008 09:15 15,9 C 82 % 1010,5 hPa 0,0 l/m 17,3 km/h (3 Bft) W 270 0 min 0 W/m 12,8 C 11,6 C 17,3 km/h (3 Bft)
17.07.2008 09:20 15,9 C 80 % 1010,5 hPa 0,0 l/m 24,5 km/h (4 Bft) W 280 0 min 0 W/m 12,5 C 9,9 C 24,5 km/h (4 Bft)
17.07.2008 09:25 16,0 C 78 % 1010,5 hPa 0,0 l/m 19,8 km/h (3 Bft) W 280 0 min 0 W/m 12,2 C 11,1 C 19,8 km/h (3 Bft)
17.07.2008 09:30 16,1 C 78 % 1010,5 hPa 0,0 l/m 18,3 km/h (3 Bft) W-NW 295 0 min 0 W/m 12,3 C 11,6 C 18,3 km/h (3 Bft)
17.07.2008 09:35 16,1 C 78 % 1011,5 hPa 0,0 l/m 21,6 km/h (4 Bft) W-NW 300 0 min 0 W/m 12,3 C 10,8 C 21,6 km/h (4 Bft)
17.07.2008 09:40 16,0 C 78 % 1011,5 hPa 0,0 l/m 23,6 km/h (4 Bft) W-NW 290 0 min 0 W/m 12,2 C 10,2 C 23,6 km/h (4 Bft)
17.07.2008 09:45 15,8 C 74 % 1011,5 hPa 0,0 l/m 23,5 km/h (4 Bft) NW 315 0 min 0 W/m 11,2 C 10,0 C 23,5 km/h (4 Bft)
17.07.2008 09:50 15,8 C 73 % 1011,5 hPa 0,0 l/m 22,5 km/h (4 Bft) W-NW 295 0 min 0 W/m 11,0 C 10,2 C 22,5 km/h (4 Bft)
17.07.2008 09:56 16,0 C 75 % 1011,5 hPa 0,0 l/m 13,9 km/h (3 Bft) W-NW 295 0 min 0 W/m 11,6 C 12,8 C 13,9 km/h (3 Bft)
17.07.2008 10:01 16,4 C 77 % 1011,5 hPa 0,0 l/m 21,8 km/h (4 Bft) W-NW 295 0 min 0 W/m 12,4 C 11,1 C 21,8 km/h (4 Bft)
17.07.2008 10:05 16,5 C 77 % 1011,5 hPa 0,0 l/m 11,5 km/h (2 Bft) NW 305 0 min 0 W/m 12,5 C 14,2 C 11,5 km/h (2 Bft)
17.07.2008 10:11 16,7 C 75 % 1011,5 hPa 0,0 l/m 17,6 km/h (3 Bft) W-NW 285 0 min 0 W/m 12,2 C 12,5 C 17,6 km/h (3 Bft)
17.07.2008 10:16 16,9 C 76 % 1011,5 hPa 0,0 l/m 15,6 km/h (3 Bft) W 275 0 min 0 W/m 12,6 C 13,3 C 15,6 km/h (3 Bft)
17.07.2008 10:20 16,8 C 76 % 1011,5 hPa 0,0 l/m 18,8 km/h (3 Bft) W-NW 285 0 min 0 W/m 12,5 C 12,4 C 18,8 km/h (3 Bft)
17.07.2008 10:25 16,7 C 77 % 1011,5 hPa 0,0 l/m 14,0 km/h (3 Bft) W-NW 300 0 min 0 W/m 12,6 C 13,6 C 14,0 km/h (3 Bft)
17.07.2008 10:30 16,6 C 72 % 1011,5 hPa 0,0 l/m 15,8 km/h (3 Bft) W 280 0 min 0 W/m 11,5 C 12,9 C 15,8 km/h (3 Bft)
17.07.2008 10:35 16,7 C 65 % 1011,5 hPa 0,0 l/m 23,4 km/h (4 Bft) W-NW 290 0 min 0 W/m 10,1 C 11,2 C 23,4 km/h (4 Bft)
17.07.2008 10:40 16,8 C 67 % 1011,5 hPa 0,0 l/m 23,1 km/h (4 Bft) W-NW 300 0 min 0 W/m 10,6 C 11,4 C 23,1 km/h (4 Bft)
17.07.2008 10:45 16,8 C 70 % 1011,5 hPa 0,0 l/m 20,5 km/h (4 Bft) W 275 0 min 0 W/m 11,3 C 12,0 C 20,5 km/h (4 Bft)
17.07.2008 10:50 16,8 C 72 % 1011,5 hPa 0,0 l/m 20,0 km/h (4 Bft) W 280 0 min 0 W/m 11,7 C 12,1 C 20,0 km/h (4 Bft)
17.07.2008 10:55 16,8 C 73 % 1011,5 hPa 0,0 l/m 18,4 km/h (3 Bft) W-NW 290 0 min 0 W/m 11,9 C 12,5 C 18,4 km/h (3 Bft)
17.07.2008 11:00 16,9 C 74 % 1011,5 hPa 0,0 l/m 15,2 km/h (3 Bft) W-NW 290 0 min 0 W/m 12,2 C 13,4 C 15,2 km/h (3 Bft)
17.07.2008 11:05 17,0 C 74 % 1011,5 hPa 0,0 l/m 15,1 km/h (3 Bft) W-NW 295 0 min 0 W/m 12,3 C 13,6 C 15,1 km/h (3 Bft)
17.07.2008 11:10 17,2 C 73 % 1011,5 hPa 0,0 l/m 19,0 km/h (3 Bft) W-NW 285 0 min 0 W/m 12,3 C 12,8 C 19,0 km/h (3 Bft)
17.07.2008 11:16 17,6 C 71 % 1010,5 hPa 0,0 l/m 13,0 km/h (3 Bft) W-NW 295 0 min 0 W/m 12,3 C 14,9 C 13,0 km/h (3 Bft)
17.07.2008 11:21 17,8 C 71 % 1010,5 hPa 0,0 l/m 14,5 km/h (3 Bft) W-NW 290 0 min 0 W/m 12,5 C 14,7 C 14,5 km/h (3 Bft)
17.07.2008 11:25 17,7 C 72 % 1010,5 hPa 0,0 l/m 21,3 km/h (4 Bft) W 280 0 min 0 W/m 12,6 C 13,0 C 21,3 km/h (4 Bft)
17.07.2008 11:30 17,8 C 71 % 1010,5 hPa 0,0 l/m 13,4 km/h (3 Bft) W 275 0 min 0 W/m 12,5 C 15,1 C 13,4 km/h (3 Bft)
17.07.2008 11:35 18,1 C 67 % 1010,5 hPa 0,0 l/m 20,6 km/h (4 Bft) W 275 0 min 0 W/m 11,9 C 13,6 C 20,6 km/h (4 Bft)
17.07.2008 11:40 18,5 C 65 % 1010,5 hPa 0,0 l/m 19,8 km/h (3 Bft) W-NW 285 0 min 0 W/m 11,8 C 14,3 C 19,8 km/h (3 Bft)
17.07.2008 11:45 18,4 C 66 % 1010,5 hPa 0,0 l/m 22,1 km/h (4 Bft) W 280 0 min 0 W/m 11,9 C 13,7 C 22,1 km/h (4 Bft)
17.07.2008 11:50 18,4 C 69 % 1010,5 hPa 0,0 l/m 25,4 km/h (4 Bft) W 265 0 min 0 W/m 12,6 C 13,1 C 25,4 km/h (4 Bft)
17.07.2008 11:55 18,6 C 69 % 1010,5 hPa 0,0 l/m 20,8 km/h (4 Bft) W 275 0 min 0 W/m 12,8 C 14,2 C 20,8 km/h (4 Bft)
17.07.2008 12:00 18,6 C 68 % 1010,5 hPa 0,0 l/m 19,5 km/h (3 Bft) W 280 0 min 0 W/m 12,6 C 14,5 C 19,5 km/h (3 Bft)
17.07.2008 12:06 18,7 C 67 % 1010,5 hPa 0,0 l/m 23,5 km/h (4 Bft) W 265 0 min 0 W/m 12,4 C 13,9 C 23,5 km/h (4 Bft)
17.07.2008 12:11 19,2 C 66 % 1010,5 hPa 0,0 l/m 23,5 km/h (4 Bft) W 265 0 min 0 W/m 12,7 C 14,5 C 23,5 km/h (4 Bft)
17.07.2008 12:15 19,3 C 64 % 1010,5 hPa 0,0 l/m 20,3 km/h (4 Bft) W 270 0 min 0 W/m 12,3 C 15,2 C 20,3 km/h (4 Bft)
17.07.2008 12:20 19,3 C 64 % 1010,5 hPa 0,0 l/m 18,6 km/h (3 Bft) W 260 0 min 0 W/m 12,3 C 15,6 C 18,6 km/h (3 Bft)
17.07.2008 12:25 19,1 C 63 % 1010,5 hPa 0,0 l/m 20,8 km/h (4 Bft) W 275 0 min 0 W/m 11,9 C 14,9 C 20,8 km/h (4 Bft)
17.07.2008 12:26 19,1 C 63 % 1010,5 hPa 0,0 l/m 20,8 km/h (4 Bft) W 275 0 min 0 W/m 11,9 C 14,9 C 20,8 km/h (4 Bft)
17.07.2008 12:31 18,8 C 65 % 1010,5 hPa 0,0 l/m 17,7 km/h (3 Bft) W 270 0 min 0 W/m 12,1 C 15,1 C 17,7 km/h (3 Bft)
17.07.2008 12:35 18,8 C 67 % 1010,5 hPa 0,0 l/m 16,5 km/h (3 Bft) W 270 0 min 0 W/m 12,5 C 15,4 C 16,5 km/h (3 Bft)
17.07.2008 12:40 19,0 C 64 % 1010,5 hPa 0,0 l/m 17,3 km/h (3 Bft) W 275 0 min 0 W/m 12,0 C 15,5 C 17,3 km/h (3 Bft)
17.07.2008 12:45 18,8 C 64 % 1010,5 hPa 0,0 l/m 15,6 km/h (3 Bft) W 280 0 min 0 W/m 11,8 C 15,6 C 15,6 km/h (3 Bft)
17.07.2008 12:50 18,8 C 67 % 1010,5 hPa 0,0 l/m 15,0 km/h (3 Bft) W-NW 295 0 min 0 W/m 12,5 C 15,8 C 15,0 km/h (3 Bft)
17.07.2008 12:56 18,7 C 68 % 1010,5 hPa 0,0 l/m 16,0 km/h (3 Bft) W 275 0 min 0 W/m 12,7 C 15,4 C 16,0 km/h (3 Bft)
17.07.2008 13:01 18,7 C 69 % 1010,5 hPa 0,0 l/m 16,8 km/h (3 Bft) W-NW 285 0 min 0 W/m 12,9 C 15,2 C 16,8 km/h (3 Bft)
17.07.2008 13:06 18,6 C 68 % 1010,5 hPa 0,0 l/m 16,8 km/h (3 Bft) W-NW 285 0 min 0 W/m 12,6 C 15,1 C 16,8 km/h (3 Bft)
17.07.2008 13:11 18,2 C 65 % 1010,5 hPa 0,0 l/m 18,5 km/h (3 Bft) W 275 0 min 0 W/m 11,5 C 14,2 C 18,5 km/h (3 Bft)
17.07.2008 13:15 18,0 C 63 % 1010,5 hPa 0,0 l/m 20,0 km/h (4 Bft) W 265 0 min 0 W/m 10,8 C 13,6 C 20,0 km/h (4 Bft)
17.07.2008 13:20 17,7 C 71 % 1010,5 hPa 0,0 l/m 18,4 km/h (3 Bft) NW 315 0 min 0 W/m 12,4 C 13,6 C 18,4 km/h (3 Bft)
17.07.2008 13:25 17,4 C 74 % 1010,5 hPa 0,3 l/m 20,6 km/h (4 Bft) NW 310 0 min 0 W/m 12,7 C 12,7 C 20,6 km/h (4 Bft)
17.07.2008 13:30 16,6 C 79 % 1010,5 hPa 0,3 l/m 11,1 km/h (2 Bft) W-NW 300 0 min 0 W/m 12,9 C 14,4 C 11,1 km/h (2 Bft)
17.07.2008 13:35 16,3 C 81 % 1010,5 hPa 0,0 l/m 14,9 km/h (3 Bft) W 265 0 min 0 W/m 13,0 C 12,8 C 14,9 km/h (3 Bft)
17.07.2008 13:40 16,4 C 82 % 1010,5 hPa 0,3 l/m 12,0 km/h (2 Bft) W-NW 290 0 min 0 W/m 13,3 C 13,9 C 12,0 km/h (2 Bft)
17.07.2008 13:45 16,5 C 81 % 1010,5 hPa 0,0 l/m 10,8 km/h (2 Bft) NW 305 0 min 0 W/m 13,2 C 14,5 C 10,8 km/h (2 Bft)
17.07.2008 13:50 16,5 C 81 % 1010,5 hPa 0,0 l/m 5,4 km/h (2 Bft) W 270 0 min 0 W/m 13,2 C 16,5 C 5,4 km/h (2 Bft)
17.07.2008 13:56 16,7 C 81 % 1010,5 hPa 0,0 l/m 5,1 km/h (1 Bft) NW 320 0 min 0 W/m 13,4 C 16,7 C 5,1 km/h (1 Bft)
17.07.2008 14:01 16,9 C 81 % 1010,5 hPa 0,0 l/m 0,0 km/h (0 Bft) NW 320 0 min 0 W/m 13,6 C 16,9 C 0,0 km/h (0 Bft)
17.07.2008 14:06 17,3 C 79 % 1010,5 hPa 0,0 l/m 6,1 km/h (2 Bft) W-NW 295 0 min 0 W/m 13,6 C 17,3 C 6,1 km/h (2 Bft)
17.07.2008 14:11 17,5 C 79 % 1010,5 hPa 0,0 l/m 3,8 km/h (1 Bft) NW 315 0 min 0 W/m 13,8 C 17,5 C 3,8 km/h (1 Bft)
17.07.2008 14:15 17,8 C 79 % 1010,5 hPa 0,0 l/m 6,5 km/h (2 Bft) NW 305 0 min 0 W/m 14,1 C 17,8 C 6,5 km/h (2 Bft)
17.07.2008 14:20 18,6 C 75 % 1010,5 hPa 0,0 l/m 5,7 km/h (2 Bft) NW 320 0 min 0 W/m 14,1 C 18,6 C 5,7 km/h (2 Bft)
17.07.2008 14:25 18,5 C 74 % 1010,5 hPa 0,0 l/m 3,5 km/h (1 Bft) N 360 0 min 0 W/m 13,8 C 18,5 C 3,5 km/h (1 Bft)
17.07.2008 14:30 18,4 C 74 % 1010,5 hPa 0,0 l/m 7,3 km/h (2 Bft) NW 305 0 min 0 W/m 13,7 C 18,0 C 7,3 km/h (2 Bft)
17.07.2008 14:35 17,4 C 73 % 1010,5 hPa 0,0 l/m 14,2 km/h (3 Bft) W 270 0 min 0 W/m 12,5 C 14,3 C 14,2 km/h (3 Bft)
17.07.2008 14:40 16,6 C 79 % 1010,5 hPa 0,3 l/m 21,5 km/h (4 Bft) W-NW 295 0 min 0 W/m 12,9 C 11,5 C 21,5 km/h (4 Bft)
17.07.2008 14:45 16,5 C 81 % 1010,5 hPa 0,0 l/m 17,7 km/h (3 Bft) NW 305 0 min 0 W/m 13,2 C 12,3 C 17,7 km/h (3 Bft)
17.07.2008 14:50 16,4 C 82 % 1010,5 hPa 0,0 l/m 12,1 km/h (2 Bft) NW 310 0 min 0 W/m 13,3 C 13,8 C 12,1 km/h (2 Bft)
17.07.2008 14:56 16,5 C 82 % 1010,5 hPa 0,0 l/m 11,8 km/h (2 Bft) W-NW 290 0 min 0 W/m 13,4 C 14,1 C 11,8 km/h (2 Bft)
17.07.2008 15:01 16,6 C 81 % 1010,5 hPa 0,0 l/m 9,5 km/h (2 Bft) W 280 0 min 0 W/m 13,3 C 15,1 C 9,5 km/h (2 Bft)
17.07.2008 15:06 16,8 C 81 % 1009,5 hPa 0,0 l/m 8,7 km/h (2 Bft) W-NW 295 0 min 0 W/m 13,5 C 15,7 C 8,7 km/h (2 Bft)
17.07.2008 15:11 17,4 C 81 % 1009,5 hPa 0,0 l/m 7,9 km/h (2 Bft) NW 310 0 min 0 W/m 14,1 C 16,7 C 7,9 km/h (2 Bft)
17.07.2008 15:15 17,6 C 78 % 1009,5 hPa 0,0 l/m 8,3 km/h (2 Bft) W-NW 290 0 min 0 W/m 13,7 C 16,7 C 8,3 km/h (2 Bft)
17.07.2008 15:20 17,8 C 78 % 1009,5 hPa 0,0 l/m 9,6 km/h (2 Bft) W 270 0 min 0 W/m 13,9 C 16,4 C 9,6 km/h (2 Bft)
17.07.2008 15:25 17,8 C 74 % 1009,5 hPa 0,0 l/m 9,0 km/h (2 Bft) W-NW 290 0 min 0 W/m 13,1 C 16,6 C 9,0 km/h (2 Bft)
17.07.2008 15:30 17,7 C 73 % 1009,5 hPa 0,0 l/m 8,2 km/h (2 Bft) W 270 0 min 0 W/m 12,8 C 16,8 C 8,2 km/h (2 Bft)
17.07.2008 15:35 17,6 C 74 % 1009,5 hPa 0,0 l/m 11,1 km/h (2 Bft) W 265 0 min 0 W/m 12,9 C 15,6 C 11,1 km/h (2 Bft)
17.07.2008 15:40 17,8 C 74 % 1009,5 hPa 0,0 l/m 14,3 km/h (3 Bft) W 270 0 min 0 W/m 13,1 C 14,8 C 14,3 km/h (3 Bft)
17.07.2008 15:45 17,6 C 73 % 1009,5 hPa 0,0 l/m 7,0 km/h (2 Bft) W 270 0 min 0 W/m 12,7 C 17,3 C 7,0 km/h (2 Bft)
17.07.2008 15:50 17,4 C 72 % 1009,5 hPa 0,0 l/m 10,8 km/h (2 Bft) W 265 0 min 0 W/m 12,3 C 15,5 C 10,8 km/h (2 Bft)
17.07.2008 15:56 17,5 C 74 % 1009,5 hPa 0,0 l/m 9,0 km/h (2 Bft) W-NW 300 0 min 0 W/m 12,8 C 16,3 C 9,0 km/h (2 Bft)
17.07.2008 16:01 17,6 C 73 % 1009,5 hPa 0,0 l/m 10,1 km/h (2 Bft) W 270 0 min 0 W/m 12,7 C 16,0 C 10,1 km/h (2 Bft)
17.07.2008 16:06 17,7 C 73 % 1009,5 hPa 0,0 l/m 14,5 km/h (3 Bft) W 270 0 min 0 W/m 12,8 C 14,6 C 14,5 km/h (3 Bft)
17.07.2008 16:11 17,7 C 72 % 1009,5 hPa 0,0 l/m 10,5 km/h (2 Bft) W 265 0 min 0 W/m 12,6 C 15,9 C 10,5 km/h (2 Bft)
17.07.2008 16:15 17,8 C 70 % 1009,5 hPa 0,0 l/m 10,7 km/h (2 Bft) W 275 0 min 0 W/m 12,3 C 15,9 C 10,7 km/h (2 Bft)
17.07.2008 16:20 17,7 C 70 % 1009,5 hPa 0,0 l/m 12,0 km/h (2 Bft) W 275 0 min 0 W/m 12,2 C 15,4 C 12,0 km/h (2 Bft)
17.07.2008 16:25 17,7 C 71 % 1009,5 hPa 0,0 l/m 12,0 km/h (2 Bft) W 275 0 min 0 W/m 12,4 C 15,4 C 12,0 km/h (2 Bft)
17.07.2008 16:30 17,6 C 72 % 1009,5 hPa 0,0 l/m 10,2 km/h (2 Bft) W 270 0 min 0 W/m 12,5 C 15,9 C 10,2 km/h (2 Bft)
17.07.2008 16:35 17,2 C 72 % 1009,5 hPa 0,0 l/m 12,4 km/h (2 Bft) W 275 0 min 0 W/m 12,1 C 14,7 C 12,4 km/h (2 Bft)
17.07.2008 16:40 17,0 C 73 % 1009,5 hPa 0,0 l/m 12,6 km/h (3 Bft) W 265 0 min 0 W/m 12,1 C 14,4 C 12,6 km/h (3 Bft)
17.07.2008 16:45 16,9 C 75 % 1009,5 hPa 0,0 l/m 11,0 km/h (2 Bft) W 275 0 min 0 W/m 12,4 C 14,8 C 11,0 km/h (2 Bft)
17.07.2008 16:51 16,8 C 75 % 1009,5 hPa 0,0 l/m 15,0 km/h (3 Bft) W 280 0 min 0 W/m 12,3 C 13,4 C 15,0 km/h (3 Bft)
17.07.2008 16:56 16,8 C 77 % 1009,5 hPa 0,0 l/m 15,2 km/h (3 Bft) W 270 0 min 0 W/m 12,7 C 13,3 C 15,2 km/h (3 Bft)
17.07.2008 17:00 16,6 C 80 % 1009,5 hPa 0,0 l/m 13,3 km/h (3 Bft) W 265 0 min 0 W/m 13,1 C 13,7 C 13,3 km/h (3 Bft)
17.07.2008 17:06 16,4 C 81 % 1009,5 hPa 0,3 l/m 16,4 km/h (3 Bft) W 275 0 min 0 W/m 13,1 C 12,5 C 16,4 km/h (3 Bft)
17.07.2008 17:10 16,2 C 83 % 1009,5 hPa 0,0 l/m 17,7 km/h (3 Bft) W 270 0 min 0 W/m 13,3 C 11,9 C 17,7 km/h (3 Bft)
17.07.2008 17:15 16,0 C 84 % 1009,5 hPa 0,3 l/m 19,3 km/h (3 Bft) W 275 0 min 0 W/m 13,3 C 11,2 C 19,3 km/h (3 Bft)
17.07.2008 17:20 15,7 C 86 % 1009,5 hPa 0,0 l/m 18,1 km/h (3 Bft) W 270 0 min 0 W/m 13,4 C 11,1 C 18,1 km/h (3 Bft)
17.07.2008 17:25 15,6 C 86 % 1009,5 hPa 0,0 l/m 18,8 km/h (3 Bft) W 270 0 min 0 W/m 13,3 C 10,8 C 18,8 km/h (3 Bft)
17.07.2008 17:30 15,5 C 87 % 1009,5 hPa 0,0 l/m 17,4 km/h (3 Bft) W 265 0 min 0 W/m 13,3 C 11,1 C 17,4 km/h (3 Bft)
17.07.2008 17:35 15,4 C 86 % 1009,5 hPa 0,0 l/m 14,5 km/h (3 Bft) W 265 0 min 0 W/m 13,1 C 11,8 C 14,5 km/h (3 Bft)
17.07.2008 17:40 15,4 C 87 % 1009,5 hPa 0,0 l/m 14,0 km/h (3 Bft) W 275 0 min 0 W/m 13,2 C 12,0 C 14,0 km/h (3 Bft)
17.07.2008 17:46 15,4 C 87 % 1009,5 hPa 0,0 l/m 12,2 km/h (2 Bft) W 270 0 min 0 W/m 13,2 C 12,7 C 12,2 km/h (2 Bft)
17.07.2008 17:51 15,6 C 87 % 1009,5 hPa 0,0 l/m 12,3 km/h (2 Bft) W-SW 250 0 min 0 W/m 13,4 C 12,8 C 12,3 km/h (2 Bft)
17.07.2008 17:55 15,6 C 86 % 1009,5 hPa 0,0 l/m 8,2 km/h (2 Bft) W-SW 255 0 min 0 W/m 13,3 C 14,6 C 8,2 km/h (2 Bft)
17.07.2008 18:00 15,8 C 86 % 1009,5 hPa 0,0 l/m 6,3 km/h (2 Bft) SW 225 0 min 0 W/m 13,5 C 15,8 C 6,3 km/h (2 Bft)
17.07.2008 18:05 16,0 C 85 % 1009,5 hPa 0,0 l/m 8,6 km/h (2 Bft) SW 215 0 min 0 W/m 13,5 C 14,9 C 8,6 km/h (2 Bft)
17.07.2008 18:10 15,9 C 84 % 1009,5 hPa 0,0 l/m 9,6 km/h (2 Bft) W 260 0 min 0 W/m 13,2 C 14,3 C 9,6 km/h (2 Bft)
17.07.2008 18:15 16,0 C 85 % 1009,5 hPa 0,0 l/m 6,6 km/h (2 Bft) W 260 0 min 0 W/m 13,5 C 15,9 C 6,6 km/h (2 Bft)
17.07.2008 18:20 16,1 C 84 % 1009,5 hPa 0,0 l/m 6,3 km/h (2 Bft) W-SW 255 0 min 0 W/m 13,4 C 16,1 C 6,3 km/h (2 Bft)
17.07.2008 18:25 16,1 C 85 % 1009,5 hPa 0,0 l/m 6,8 km/h (2 Bft) W 260 0 min 0 W/m 13,6 C 15,9 C 6,8 km/h (2 Bft)
17.07.2008 18:30 16,0 C 85 % 1009,5 hPa 0,0 l/m 8,1 km/h (2 Bft) W 260 0 min 0 W/m 13,5 C 15,1 C 8,1 km/h (2 Bft)
17.07.2008 18:35 16,0 C 85 % 1009,5 hPa 0,0 l/m 12,9 km/h (3 Bft) W 260 0 min 0 W/m 13,5 C 13,1 C 12,9 km/h (3 Bft)
17.07.2008 18:41 15,8 C 86 % 1009,5 hPa 0,0 l/m 8,7 km/h (2 Bft) W 260 0 min 0 W/m 13,5 C 14,6 C 8,7 km/h (2 Bft)
17.07.2008 18:46 15,7 C 87 % 1009,5 hPa 0,0 l/m 10,9 km/h (2 Bft) W 270 0 min 0 W/m 13,5 C 13,5 C 10,9 km/h (2 Bft)
17.07.2008 18:50 15,6 C 86 % 1009,5 hPa 0,0 l/m 10,1 km/h (2 Bft) W 265 0 min 0 W/m 13,3 C 13,7 C 10,1 km/h (2 Bft)
17.07.2008 18:55 15,7 C 87 % 1009,5 hPa 0,0 l/m 9,3 km/h (2 Bft) W 270 0 min 0 W/m 13,5 C 14,2 C 9,3 km/h (2 Bft)
17.07.2008 19:00 15,7 C 85 % 1009,5 hPa 0,0 l/m 8,9 km/h (2 Bft) W 265 0 min 0 W/m 13,2 C 14,4 C 8,9 km/h (2 Bft)
17.07.2008 19:05 15,6 C 85 % 1009,5 hPa 0,3 l/m 12,0 km/h (2 Bft) W 270 0 min 0 W/m 13,1 C 13,0 C 12,0 km/h (2 Bft)
17.07.2008 19:10 15,4 C 85 % 1009,5 hPa 0,0 l/m 12,8 km/h (3 Bft) W 270 0 min 0 W/m 12,9 C 12,4 C 12,8 km/h (3 Bft)
17.07.2008 19:15 15,5 C 86 % 1009,5 hPa 0,0 l/m 7,6 km/h (2 Bft) W 270 0 min 0 W/m 13,2 C 14,8 C 7,6 km/h (2 Bft)
17.07.2008 19:20 15,4 C 84 % 1009,5 hPa 0,0 l/m 6,0 km/h (2 Bft) W 275 0 min 0 W/m 12,7 C 15,4 C 6,0 km/h (2 Bft)
17.07.2008 19:25 15,4 C 84 % 1009,5 hPa 0,3 l/m 7,4 km/h (2 Bft) W 275 0 min 0 W/m 12,7 C 14,8 C 7,4 km/h (2 Bft)
17.07.2008 19:30 15,4 C 84 % 1009,5 hPa 0,0 l/m 8,8 km/h (2 Bft) W 265 0 min 0 W/m 12,7 C 14,1 C 8,8 km/h (2 Bft)
17.07.2008 19:36 15,4 C 85 % 1009,5 hPa 0,0 l/m 7,1 km/h (2 Bft) W 265 0 min 0 W/m 12,9 C 15,0 C 7,1 km/h (2 Bft)
17.07.2008 19:41 15,5 C 85 % 1008,5 hPa 0,0 l/m 6,7 km/h (2 Bft) W 260 0 min 0 W/m 13,0 C 15,3 C 6,7 km/h (2 Bft)
17.07.2008 19:45 15,7 C 85 % 1008,5 hPa 0,0 l/m 5,3 km/h (1 Bft) W 260 0 min 0 W/m 13,2 C 15,7 C 5,3 km/h (1 Bft)
17.07.2008 19:50 15,8 C 86 % 1008,5 hPa 0,0 l/m 8,9 km/h (2 Bft) W-SW 255 0 min 0 W/m 13,5 C 14,5 C 8,9 km/h (2 Bft)
17.07.2008 19:55 15,9 C 85 % 1008,5 hPa 0,0 l/m 6,9 km/h (2 Bft) W-SW 250 0 min 0 W/m 13,4 C 15,6 C 6,9 km/h (2 Bft)
17.07.2008 20:00 16,0 C 85 % 1008,5 hPa 0,0 l/m 7,8 km/h (2 Bft) W-SW 255 0 min 0 W/m 13,5 C 15,3 C 7,8 km/h (2 Bft)
17.07.2008 20:05 16,2 C 85 % 1008,5 hPa 0,0 l/m 2,9 km/h (1 Bft) W-SW 245 0 min 0 W/m 13,7 C 16,2 C 2,9 km/h (1 Bft)
17.07.2008 20:10 16,4 C 85 % 1008,5 hPa 0,0 l/m 0,1 km/h (0 Bft) SW 225 0 min 0 W/m 13,9 C 16,4 C 0,1 km/h (0 Bft)
17.07.2008 20:15 16,4 C 85 % 1008,5 hPa 0,0 l/m 4,5 km/h (1 Bft) S-SW 200 0 min 0 W/m 13,9 C 16,4 C 4,5 km/h (1 Bft)
17.07.2008 20:20 16,5 C 84 % 1008,5 hPa 0,0 l/m 6,4 km/h (2 Bft) SW 220 0 min 0 W/m 13,8 C 16,5 C 6,4 km/h (2 Bft)
17.07.2008 20:25 16,4 C 84 % 1008,5 hPa 0,0 l/m 6,6 km/h (2 Bft) SW 225 0 min 0 W/m 13,7 C 16,3 C 6,6 km/h (2 Bft)
17.07.2008 20:31 16,4 C 84 % 1008,5 hPa 0,3 l/m 8,9 km/h (2 Bft) SW 220 0 min 0 W/m 13,7 C 15,1 C 8,9 km/h (2 Bft)
17.07.2008 20:36 16,2 C 84 % 1008,5 hPa 0,0 l/m 5,9 km/h (2 Bft) SW 230 0 min 0 W/m 13,5 C 16,2 C 5,9 km/h (2 Bft)
17.07.2008 20:40 16,1 C 84 % 1008,5 hPa 0,0 l/m 9,0 km/h (2 Bft) SW 220 0 min 0 W/m 13,4 C 14,8 C 9,0 km/h (2 Bft)
17.07.2008 20:45 16,0 C 84 % 1008,5 hPa 0,3 l/m 7,6 km/h (2 Bft) SW 215 0 min 0 W/m 13,3 C 15,4 C 7,6 km/h (2 Bft)
17.07.2008 20:50 16,1 C 84 % 1008,5 hPa 0,0 l/m 9,8 km/h (2 Bft) SW 225 0 min 0 W/m 13,4 C 14,4 C 9,8 km/h (2 Bft)
17.07.2008 20:55 16,1 C 85 % 1008,5 hPa 0,0 l/m 9,8 km/h (2 Bft) SW 220 0 min 0 W/m 13,6 C 14,4 C 9,8 km/h (2 Bft)
17.07.2008 21:00 16,1 C 84 % 1008,5 hPa 0,0 l/m 10,1 km/h (2 Bft) SW 220 0 min 0 W/m 13,4 C 14,3 C 10,1 km/h (2 Bft)
17.07.2008 21:05 15,9 C 84 % 1008,5 hPa 0,0 l/m 7,6 km/h (2 Bft) W-SW 255 0 min 0 W/m 13,2 C 15,3 C 7,6 km/h (2 Bft)
17.07.2008 21:10 15,8 C 85 % 1008,5 hPa 0,0 l/m 9,6 km/h (2 Bft) SW 230 0 min 0 W/m 13,3 C 14,2 C 9,6 km/h (2 Bft)
17.07.2008 21:15 15,6 C 85 % 1008,5 hPa 0,0 l/m 10,1 km/h (2 Bft) W-SW 245 0 min 0 W/m 13,1 C 13,7 C 10,1 km/h (2 Bft)
17.07.2008 21:21 15,6 C 86 % 1008,5 hPa 0,0 l/m 10,6 km/h (2 Bft) W-SW 250 0 min 0 W/m 13,3 C 13,5 C 10,6 km/h (2 Bft)
17.07.2008 21:26 15,5 C 86 % 1008,5 hPa 0,0 l/m 10,3 km/h (2 Bft) SW 225 0 min 0 W/m 13,2 C 13,5 C 10,3 km/h (2 Bft)
17.07.2008 21:30 15,4 C 87 % 1008,5 hPa 0,0 l/m 5,9 km/h (2 Bft) SW 230 0 min 0 W/m 13,2 C 15,4 C 5,9 km/h (2 Bft)
17.07.2008 21:35 15,4 C 87 % 1008,5 hPa 0,0 l/m 7,8 km/h (2 Bft) W-SW 240 0 min 0 W/m 13,2 C 14,6 C 7,8 km/h (2 Bft)
17.07.2008 21:40 15,3 C 87 % 1008,5 hPa 0,0 l/m 8,2 km/h (2 Bft) SW 235 0 min 0 W/m 13,1 C 14,3 C 8,2 km/h (2 Bft)
17.07.2008 21:45 15,3 C 88 % 1008,5 hPa 0,0 l/m 11,3 km/h (2 Bft) W-SW 245 0 min 0 W/m 13,3 C 12,9 C 11,3 km/h (2 Bft)
17.07.2008 21:50 15,4 C 87 % 1008,5 hPa 0,0 l/m 9,4 km/h (2 Bft) W-SW 245 0 min 0 W/m 13,2 C 13,8 C 9,4 km/h (2 Bft)
17.07.2008 21:55 15,6 C 87 % 1008,5 hPa 0,0 l/m 8,3 km/h (2 Bft) W-SW 245 0 min 0 W/m 13,4 C 14,6 C 8,3 km/h (2 Bft)
17.07.2008 22:01 15,4 C 87 % 1008,5 hPa 0,0 l/m 8,4 km/h (2 Bft) W 260 0 min 0 W/m 13,2 C 14,3 C 8,4 km/h (2 Bft)
17.07.2008 22:05 15,4 C 87 % 1008,5 hPa 0,0 l/m 11,6 km/h (2 Bft) W 260 0 min 0 W/m 13,2 C 12,9 C 11,6 km/h (2 Bft)
17.07.2008 22:11 15,4 C 87 % 1008,5 hPa 0,0 l/m 5,8 km/h (2 Bft) SW 230 0 min 0 W/m 13,2 C 15,4 C 5,8 km/h (2 Bft)
17.07.2008 22:16 15,4 C 87 % 1008,5 hPa 0,0 l/m 8,5 km/h (2 Bft) W-SW 245 0 min 0 W/m 13,2 C 14,3 C 8,5 km/h (2 Bft)
17.07.2008 22:20 15,3 C 87 % 1008,5 hPa 0,0 l/m 7,6 km/h (2 Bft) W-SW 245 0 min 0 W/m 13,1 C 14,6 C 7,6 km/h (2 Bft)
17.07.2008 22:25 15,4 C 87 % 1008,5 hPa 0,0 l/m 4,6 km/h (1 Bft) W-SW 245 0 min 0 W/m 13,2 C 15,4 C 4,6 km/h (1 Bft)
17.07.2008 22:30 15,4 C 86 % 1008,5 hPa 0,0 l/m 10,3 km/h (2 Bft) W-SW 250 0 min 0 W/m 13,1 C 13,4 C 10,3 km/h (2 Bft)
17.07.2008 22:35 15,3 C 86 % 1008,5 hPa 0,0 l/m 8,4 km/h (2 Bft) W-SW 255 0 min 0 W/m 13,0 C 14,2 C 8,4 km/h (2 Bft)
17.07.2008 22:40 15,2 C 86 % 1008,5 hPa 0,0 l/m 8,8 km/h (2 Bft) W-SW 240 0 min 0 W/m 12,9 C 13,9 C 8,8 km/h (2 Bft)
17.07.2008 22:45 15,1 C 87 % 1008,5 hPa 0,0 l/m 12,5 km/h (2 Bft) W-SW 245 0 min 0 W/m 13,0 C 12,2 C 12,5 km/h (2 Bft)
17.07.2008 22:51 15,2 C 87 % 1008,5 hPa 0,0 l/m 9,5 km/h (2 Bft) SW 230 0 min 0 W/m 13,0 C 13,6 C 9,5 km/h (2 Bft)
17.07.2008 22:56 15,2 C 87 % 1008,5 hPa 0,0 l/m 12,5 km/h (2 Bft) W-SW 255 0 min 0 W/m 13,0 C 12,3 C 12,5 km/h (2 Bft)
17.07.2008 23:00 15,2 C 87 % 1008,5 hPa 0,0 l/m 7,7 km/h (2 Bft) W-SW 240 0 min 0 W/m 13,0 C 14,5 C 7,7 km/h (2 Bft)
17.07.2008 23:06 15,2 C 87 % 1008,5 hPa 0,0 l/m 7,2 km/h (2 Bft) W-SW 240 0 min 0 W/m 13,0 C 14,8 C 7,2 km/h (2 Bft)
17.07.2008 23:10 15,3 C 86 % 1008,5 hPa 0,0 l/m 7,6 km/h (2 Bft) W-SW 240 0 min 0 W/m 13,0 C 14,6 C 7,6 km/h (2 Bft)
17.07.2008 23:15 15,2 C 86 % 1008,5 hPa 0,0 l/m 6,5 km/h (2 Bft) SW 225 0 min 0 W/m 12,9 C 15,2 C 6,5 km/h (2 Bft)
17.07.2008 23:20 15,2 C 86 % 1008,5 hPa 0,0 l/m 8,9 km/h (2 Bft) W-SW 250 0 min 0 W/m 12,9 C 13,9 C 8,9 km/h (2 Bft)
17.07.2008 23:25 15,2 C 86 % 1008,5 hPa 0,0 l/m 12,8 km/h (3 Bft) W-SW 255 0 min 0 W/m 12,9 C 12,2 C 12,8 km/h (3 Bft)
17.07.2008 23:30 15,2 C 87 % 1008,5 hPa 0,0 l/m 9,6 km/h (2 Bft) W-SW 255 0 min 0 W/m 13,0 C 13,5 C 9,6 km/h (2 Bft)
17.07.2008 23:35 15,2 C 87 % 1008,5 hPa 0,0 l/m 7,5 km/h (2 Bft) W-SW 250 0 min 0 W/m 13,0 C 14,6 C 7,5 km/h (2 Bft)
17.07.2008 23:41 15,2 C 87 % 1008,5 hPa 0,0 l/m 8,5 km/h (2 Bft) W-SW 245 0 min 0 W/m 13,0 C 14,1 C 8,5 km/h (2 Bft)
17.07.2008 23:46 15,2 C 87 % 1008,5 hPa 0,0 l/m 8,5 km/h (2 Bft) W-SW 245 0 min 0 W/m 13,0 C 14,1 C 8,5 km/h (2 Bft)
17.07.2008 23:50 15,2 C 87 % 1008,5 hPa 0,0 l/m 11,2 km/h (2 Bft) W-SW 250 0 min 0 W/m 13,0 C 12,8 C 11,2 km/h (2 Bft)
17.07.2008 23:55 15,1 C 87 % 1008,5 hPa 0,0 l/m 8,0 km/h (2 Bft) W-SW 245 0 min 0 W/m 13,0 C 14,2 C 8,0 km/h (2 Bft)
_ Min-Zeit 04:15 12:25 19:41 - 14:01 - - - - 10:35 00:15 14:01
Minimum _ 14,4 C 63 % 1008,5 hPa - 0,0 km/h (0 Bft) - - - - 10,1 C 8,4 C 0,0 km/h (0 Bft)
_ Max-Zeit 12:15 08:46 00:00 03:15 00:50 - - 00:00 00:00 14:15 14:20 00:50
Maximum _ 19,3 C 88 % 1012,5 hPa 0,9 l/m 30,5 km/h
W-NW (5 Bft)
- - 0 min 0 W/m 14,1 C 18,6 C 30,5 km/h
W-NW (5 Bft)
Durchschnitt _ 16,0 C 80 % 1010,4 hPa #4,2 l/m 14,2 km/h (3 Bft) W - #0 min. 0 W/m 12,6 C 13,0 C 14,2 km/h (3 Bft)
copyright by Holger Just